Location: ??????
(56.0120°N, 39.1740°E)
Time: 01:45:59
(UTC+00:00)

Cosmos 44 - Pass Details

Date: 14 April 2026
Orbit: 568 x 782 km, 65.1° (Epoch: 20 May)

Event Time Altitude Azimuth Distance (km) Brightness Sun altitude
Exits shadow 21:16:17 41° 249° (WSW) 1,084 4.1 -24.3°
Maximum altitude 21:18:05 72° 322° (NW) 803 3.6 -24.3°
Drops below altitude 10° 21:23:29 10° 47° (NE) 2,336 6.5 -24.3°
Sets 21:25:57 0° 50° (NE) 3,275 7.3 -24.3°
